,

(GMT )
Twenthe

Weather History for EHTW - March, 2014

Change the Weather History Date:

Tuesday, March 4, 2014

  Actual Average Record
Temperature  
Mean Temperature 42 °F -  
Max Temperature 55 °F 44 °F 59 °F (1998)
Min Temperature 29 °F 32 °F 3 °F (2005)
Degree Days  
Heating Degree Days 23    
Moisture  
Dew Point 34 °F    
Average Humidity 73    
Maximum Humidity 100    
Minimum Humidity 31    
Precipitation  
Precipitation 0.00 in - - ()
Sea Level Pressure  
Sea Level Pressure 29.62 in    
Wind  
Wind Speed 3 mph ()    
Max Wind Speed 7 mph    
Max Gust Speed -    
Visibility 9.7 miles    
Events      
Averages and records for this station are not official NWS values.
T = Trace of Precipitation, MM = Missing Value Source: Averaged Metar Reports

Daily Weather History Graph

Daily Weather History Graph

Search for Another Location

Airport or City:

Trip Planner

Search our weather history database for the weather conditions in past years. The results will help you decide how hot, cold, wet, or windy it might be!

Date:

Astronomy

Mar. 04, 2014 Rise Set
Actual Time 7:12 AM CET 6:16 PM CET
Civil Twilight 6:38 AM CET 6:50 PM CET
Nautical Twilight 5:59 AM CET 7:30 PM CET
Astronomical Twilight 5:19 AM CET 8:10 PM CET
Moon 8:19 AM CET (3/4) 10:40 PM CET (3/4)
Length of Visible Light 12h 12m
Length of Day
11h 04m
Waxing Crescent, 13% of the Moon is Illuminated
Mar 4
Waxing Crescent
Mar 8
First Quarter
Mar 16
Full
Mar 24
Last Quarter
Mar 30
New

Hourly Weather History & Observations

Time (CET) Temp. Dew Point Humidity Pressure Visibility Wind Dir Wind Speed Gust Speed Precip Events Conditions
12:00 AM 36 °F 34 °F 88% 29.44 in 10 mi SE 2.2 mph - -  
1:00 AM 36 °F 34 °F 89% 29.45 in 7 mi ESE 2.2 mph - -   Partly Cloudy
2:00 AM 35 °F 33 °F 90% 29.48 in 6 mi ESE 4.5 mph - -   Mist
3:00 AM 33 °F 31 °F 92% 29.49 in 4 mi ESE 2.2 mph - -   Mist
4:00 AM 31 °F 31 °F 100% 29.50 in 3 mi ESE 2.2 mph - -   Mist
5:00 AM 30 °F 30 °F 100% 29.52 in 1 mi NE 2.2 mph - -   Mist
6:00 AM 32 °F 32 °F 100% 29.54 in 5 mi East 2.2 mph - -   Mist
7:00 AM 31 °F 31 °F 97% 29.57 in 4 mi Calm Calm - -   Mist
8:00 AM 31 °F 30 °F 95% 29.59 in 3 mi East 2.2 mph - -   Mist
9:00 AM 38 °F 35 °F 84% 29.61 in 7 mi SE 2.2 mph - -  
10:00 AM 46 °F 38 °F 63% 29.62 in 12 mi South 4.5 mph - -  
11:00 AM 49 °F 37 °F 52% 29.63 in 14 mi South 4.5 mph - -  
12:00 PM 52 °F 37 °F 46% 29.64 in 14 mi SE 4.5 mph - -  
1:00 PM 52 °F 33 °F 37% 29.64 in 16 mi ESE 6.7 mph - -   Partly Cloudy
2:00 PM 54 °F 33 °F 32% 29.63 in 22 mi SSW 6.7 mph - -  
3:00 PM 54 °F 32 °F 31% 29.64 in 22 mi SSE 6.7 mph - -   Scattered Clouds
4:00 PM 54 °F 34 °F 35% 29.65 in 19 mi South 4.5 mph - -   Partly Cloudy
5:00 PM 52 °F 38 °F 48% 29.68 in 12 mi SW 6.7 mph - -   Scattered Clouds
6:00 PM 50 °F 38 °F 53% 29.70 in 16 mi SW 6.7 mph - -   Scattered Clouds
7:00 PM 45 °F 37 °F 64% 29.73 in 19 mi SSW 4.5 mph - -   Partly Cloudy
8:00 PM 38 °F 35 °F 83% 29.75 in 12 mi Calm Calm - -  
9:00 PM 37 °F 35 °F 90% 29.77 in 12 mi East 2.2 mph - -   Scattered Clouds
10:00 PM 35 °F 32 °F 86% 29.78 in 11 mi 2.2 mph - -   Partly Cloudy
11:00 PM 32 °F 31 °F 97% 29.80 in 6 mi South 2.2 mph - -